Notices

What's New in latest Release from April 7th, 2021:

- Updated Glossary, including Speed of Maximum Gust, and Total Hourly Precipitation

- Updated national and regional climate services offices contacts and prices information

- Addition of station inventory lists for 1981-2010, 1971-2000, and 1961-1990 Normals.

If you haven't already, please take our survey and provide feedback about our website: https://eccc.sondage-survey.ca/f/LanguageSelection.aspx?s=442ca660-fcf1-47c0-95a9-59707d6fd709

Hourly Data Report for September 11, 2019

QUALICUM BEACH AIRPORT
BRITISH COLUMBIA
Current Station Operator: ECCC - MSC

49°20'14.000" N
124°23'38.000" W
58.20 m
1026562
71766
VOQ

Download Data

Hourly Data (September 2019)
Hourly Data Report for September 11, 2019
TIME
LST
Temp Definition
°C
Dew Point Definition
°C
Rel Hum Definition
%
Precip. Amount Definition
mm

Wind Dir Definition
10's deg

Wind Spd Definition
km/h
Visibility Definition
km
Stn Press Definition
kPa
Hmdx Definition


Wind Chill Definition


Weather Definition


00:00 11.8 11.0 95 0.0 17 3   100.92     LegendNANA
01:00 11.1 10.3 94 0.0   0   100.94     LegendNANA
02:00 11.5 10.7 95 0.0 25 1   100.98     LegendNANA
03:00 11.1 10.4 96 0.0 26 1   101.02     LegendNANA
04:00 9.8 9.0 95 0.0 0 1   101.04     LegendNANA
05:00 9.5 8.8 96 0.0 21 2   101.06     LegendNANA
06:00 9.7 9.1 96 0.0 15 2   101.11     LegendNANA
07:00 13.4 12.0 91 0.0 0 1   101.16     LegendNANA
08:00 14.7 12.5 86 0.0 14 2   101.22     LegendNANA
09:00 16.3 13.1 82 0.0 10 6   101.26     LegendNANA
10:00 17.5 13.4 77 0.0 8 9   101.29     LegendNANA
11:00 17.7 14.0 79 0.0 10 12   101.31     LegendNANA
12:00 17.6 13.6 77 0.0 10 11   101.36     LegendNANA
13:00 17.8 13.6 77 0.0 10 11   101.38     LegendNANA
14:00 17.6 13.8 79 0.0 11 12   101.38     LegendNANA
15:00 17.8 14.0 79 0.0 10 11   101.36     LegendNANA
16:00 18.3 14.1 77 0.0 9 5   101.36     LegendNANA
17:00 17.9 14.1 78 0.0 8 2   101.37     LegendNANA
18:00 17.7 14.4 81 0.0 36 2   101.35     LegendNANA
19:00 17.1 14.6 85 0.0 24 4   101.36     LegendNANA
20:00 16.2 14.8 91 0.1   0   101.38     LegendNANA
21:00 15.7 13.9 89 0.2 19 3   101.39     LegendNANA
22:00 15.1 13.8 92 0.0 13 7   101.36     LegendNANA
23:00 15.2 13.7 91 0.0 14 5   101.34     LegendNANA

Notes on Data Quality.

Legend

  • E = Estimated
  • M = Missing
  • NA = Not Available*
  • [empty] = Indicates an unobserved value
Date modified: